GFSFLT2_925_temp_021.txt.gz
Temp
30 30 31 28 29 31 30 27 29 32 32 32 33 34 34 34 35 34 33 32 31 31 30 28 28 27 26 25 24 23 23 23
30 31 31 29 31 28 29 28 28 31 30 33 32 34 33 33 34 34 34 33 33 32 31 30 28 28 26 25 25 24 23 23
30 29 29 28 29 30 31 30 30 30 32 32 33 33 34 35 35 35 34 34 34 33 31 30 29 28 27 26 25 24 23 23
28 30 32 31 30 30 29 27 29 31 32 33 34 34 34 35 35 34 34 33 33 33 32 31 30 29 28 27 26 25 24 24
27 29 29 30 31 31 31 31 28 30 32 34 33 32 34 34 34 32 32 31 32 33 33 32 31 30 29 28 27 26 25 24
28 27 25 25 28 30 30 30 30 30 32 33 33 32 32 33 33 33 32 32 31 31 31 32 31 30 29 29 28 27 26 25
21 21 22 23 24 26 27 29 30 31 31 32 32 32 33 34 33 32 32 32 31 31 29 29 30 29 28 29 28 27 26 25
20 22 22 23 24 24 25 26 27 28 29 32 30 32 32 33 34 33 32 32 32 32 30 29 29 28 28 28 28 27 26 25
20 21 22 22 24 25 26 27 28 27 29 31 31 31 31 31 33 33 34 34 33 32 31 30 29 28 28 27 27 26 26 25
19 20 20 25 26 26 27 28 29 29 30 30 31 32 32 33 33 33 33 33 32 33 32 30 30 31 29 28 26 25 25 25
18 20 22 23 25 25 25 28 28 26 28 30 32 32 31 32 32 31 32 32 31 31 31 29 29 29 28 28 26 26 25 25
18 18 20 24 25 24 23 24 24 23 25 26 30 31 33 34 32 32 31 31 30 29 29 28 28 29 28 28 27 26 26 25
16 17 20 23 23 22 23 26 23 23 23 23 24 29 30 28 29 27 27 28 28 27 28 27 26 28 28 28 27 27 26 26
15 16 16 22 23 23 23 22 22 22 21 20 22 24 26 27 26 26 26 25 26 26 25 25 25 26 27 26 26 26 26 25
17 18 19 20 20 21 20 21 21 21 21 20 21 24 25 25 24 24 24 24 24 24 23 23 24 25 25 24 25 25 25 25
16 18 18 19 20 21 20 20 20 20 19 19 21 22 23 23 23 24 24 23 23 24 24 23 22 22 22 22 23 24 25 25
15 16 17 19 20 20 20 20 20 19 19 19 21 21 22 21 21 21 22 21 21 22 22 21 21 20 20 20 21 23 23 24
15 17 15 16 18 19 19 20 19 18 19 18 19 18 18 18 18 18 19 19 20 20 20 19 19 19 19 18 19 20 21 23
14 15 14 16 16 18 19 19 18 18 19 18 17 17 17 17 18 17 18 18 18 18 18 19 20 19 18 18 19 19 20 19

GFSFLT2_925_temp_024.txt.gz
Temp
33 33 34 32 33 35 35 35 34 37 36 38 38 38 38 39 39 40 38 37 36 36 34 32 31 30 29 28 26 26 25 25
33 34 34 34 34 33 34 32 32 35 35 36 37 36 38 38 39 40 39 37 37 36 36 34 32 31 29 28 27 26 26 25
33 32 32 33 33 33 35 35 34 34 36 38 37 37 37 38 39 40 39 39 38 38 36 35 34 32 30 29 28 27 27 26
32 34 34 34 33 33 33 32 34 35 37 38 38 38 38 39 39 40 40 40 39 39 38 36 34 33 32 31 29 28 28 26
31 33 33 33 34 34 34 35 33 33 35 37 36 36 37 37 38 38 38 37 38 39 38 37 35 34 33 32 31 30 28 28
32 32 32 32 33 34 34 34 34 35 35 36 36 36 36 37 37 37 37 37 37 37 38 37 36 34 33 33 32 31 30 29
30 28 28 32 32 33 33 33 33 35 35 35 36 36 36 36 36 36 37 37 36 36 36 35 35 34 32 32 32 32 31 30
26 27 27 27 29 31 32 34 33 34 34 36 37 35 35 35 35 35 36 37 37 37 36 35 34 33 33 32 32 31 31 30
25 27 27 26 28 29 30 31 31 31 32 34 34 34 34 35 35 35 36 36 37 38 37 37 36 34 33 32 31 31 29 29
25 25 23 29 32 30 30 30 31 31 32 33 33 34 34 35 35 36 37 37 37 38 39 38 37 37 35 32 30 30 29 28
22 24 27 28 28 28 29 30 32 32 32 33 33 34 34 35 36 36 36 37 37 37 37 36 36 36 34 32 31 29 29 28
22 22 23 27 29 28 28 27 31 29 30 31 31 32 34 36 37 37 37 37 36 36 35 34 33 34 33 33 31 29 29 28
20 21 24 27 26 26 25 26 27 28 28 28 28 30 30 30 31 32 34 34 34 33 33 33 32 32 33 32 32 30 29 29
20 20 20 26 25 24 24 25 25 26 26 26 26 26 27 27 29 30 32 33 32 31 32 31 30 30 31 31 31 30 29 29
21 21 22 24 24 24 24 24 24 24 25 25 25 25 26 28 29 30 31 31 31 32 30 29 28 30 30 29 29 29 28 28
19 20 21 21 22 23 23 23 24 25 25 25 24 24 25 27 29 28 28 28 28 28 28 27 27 28 27 26 27 27 27 27
17 19 20 21 21 21 22 23 23 24 24 24 23 22 26 27 26 26 26 26 26 27 26 25 24 24 24 24 25 27 27 27
17 19 19 19 21 19 20 20 21 23 23 23 19 21 21 21 20 22 22 23 22 22 22 23 23 23 22 22 23 24 26 27
18 19 19 19 19 19 19 20 22 23 23 19 19 20 20 20 20 19 20 20 21 20 22 22 19 19 19 22 22 23 24 24

GFSFLT2_925_temp_030.txt.gz
Temp
37 37 37 35 34 37 36 36 36 37 37 39 40 40 41 42 42 41 41 41 38 37 35 33 33 31 30 28 26 25 25 25
36 37 37 37 37 34 36 33 34 37 38 37 38 39 40 41 42 42 41 41 39 38 36 34 33 32 31 29 27 26 26 25
37 35 35 36 36 35 36 36 35 36 38 42 39 39 40 41 41 42 41 40 40 39 37 35 34 33 31 30 28 27 26 26
35 38 37 37 36 36 34 34 36 37 38 41 42 41 41 41 41 42 41 40 40 39 38 37 35 34 32 31 30 28 27 26
32 36 37 36 36 36 36 36 35 35 37 41 40 41 41 41 41 40 40 41 40 40 39 38 36 35 34 32 31 30 28 27
33 34 37 35 36 36 36 35 35 37 37 38 39 39 40 40 40 40 39 39 40 40 38 38 37 35 34 33 33 31 30 28
33 35 37 36 35 36 36 37 35 37 38 37 38 38 39 39 39 40 40 40 39 40 37 36 36 35 35 35 34 33 32 30
30 33 34 34 36 36 36 37 37 38 39 39 38 38 38 37 37 37 37 39 39 39 38 38 37 36 35 35 35 34 33 32
27 30 32 33 35 36 37 37 37 37 38 39 37 37 37 37 37 37 37 38 38 38 38 37 38 37 35 35 35 35 33 32
26 28 27 33 36 36 37 37 38 38 39 39 38 38 37 37 37 37 37 37 37 38 38 38 38 38 37 35 34 34 34 33
25 27 30 32 34 34 34 36 38 38 38 37 37 37 36 36 37 36 37 36 37 38 38 38 38 38 36 35 34 33 33 32
24 26 27 31 34 35 36 32 32 35 35 36 36 33 32 31 32 32 33 33 33 34 35 38 38 39 38 35 34 32 32 32
23 24 28 26 31 34 31 25 27 30 32 33 32 30 30 31 30 31 32 33 33 33 33 34 33 34 34 36 35 34 32 32
23 23 23 26 28 26 25 25 26 26 27 28 28 29 29 29 29 29 31 32 33 33 33 34 33 33 33 33 34 34 35 32
23 24 25 26 26 26 26 25 25 25 26 27 28 28 28 28 28 29 31 32 32 32 33 33 33 31 31 31 32 33 33 32
21 23 23 24 26 26 25 25 24 25 25 26 26 26 27 27 26 27 29 29 29 30 31 29 29 29 30 30 31 31 31 31
20 22 23 23 24 24 24 24 24 25 25 25 24 25 25 26 25 25 26 25 26 28 29 28 26 26 26 26 27 29 30 29
19 21 20 21 22 24 24 23 24 24 24 24 24 24 24 25 24 23 24 24 25 26 27 25 24 23 25 25 26 28 29 29
15 15 17 19 21 22 22 23 24 24 24 23 23 23 24 24 23 22 22 23 24 24 22 22 23 24 24 25 25 26 27 28

GFSFLT2_925_temp_033.txt.gz
Temp
33 34 33 31 30 31 29 30 28 30 31 33 35 35 36 36 37 34 33 34 33 32 31 31 30 29 27 25 25 24 24 24
33 33 34 32 32 30 30 27 28 30 31 32 33 34 35 34 36 36 34 33 33 32 32 31 31 29 28 25 25 24 24 24
32 31 31 32 31 32 29 27 26 27 30 35 34 34 34 35 34 38 36 35 33 33 32 31 31 30 28 27 25 24 24 24
28 33 34 33 32 31 30 28 29 29 31 33 34 36 35 36 34 35 37 35 34 33 33 31 31 30 29 28 26 25 24 24
27 29 32 33 33 32 30 28 28 28 28 35 33 36 35 35 34 33 34 35 35 34 33 32 32 31 30 29 27 26 25 25
25 28 30 32 33 33 31 30 31 29 32 34 33 33 33 33 33 33 32 35 35 35 34 33 32 32 31 30 29 27 26 25
25 29 31 32 33 33 32 31 31 31 32 34 36 32 32 32 33 33 32 34 35 35 34 33 32 32 31 30 30 29 27 26
24 29 30 31 34 34 34 33 32 32 32 32 32 30 31 31 31 31 31 31 32 34 34 34 33 32 31 31 31 30 29 27
23 27 29 29 31 34 34 34 33 31 32 33 32 32 31 30 31 31 31 31 31 31 30 30 33 33 32 32 31 31 30 29
20 24 25 28 31 33 34 34 34 34 33 31 31 29 28 29 30 31 31 30 30 30 31 35 34 32 33 32 31 31 30 29
20 23 27 29 28 28 32 25 25 27 33 32 30 28 27 28 28 27 27 27 27 29 30 33 35 36 33 32 31 30 31 30
20 21 25 21 24 27 29 22 25 26 28 31 29 25 24 26 27 27 26 27 28 31 32 32 32 34 33 32 32 31 31 30
20 21 20 23 24 24 25 21 24 24 25 25 25 24 24 25 25 25 26 27 31 31 30 32 33 33 31 31 30 33 33 33
20 20 18 21 23 21 21 22 22 22 22 23 24 24 24 23 24 24 25 27 28 27 28 31 33 33 30 30 32 33 32 31
18 17 19 18 19 22 22 22 21 20 22 22 22 22 23 22 22 23 24 24 25 25 26 27 27 28 28 28 30 31 32 32
17 19 19 20 22 22 22 22 21 21 21 21 20 21 21 21 21 22 22 23 23 24 24 25 26 26 26 26 28 29 31 30
16 17 17 18 17 18 20 21 22 22 21 21 20 19 19 19 20 20 20 21 22 22 23 23 24 24 25 25 26 27 29 29
12 14 13 14 15 16 17 19 19 20 21 21 20 19 19 18 19 19 19 21 20 21 22 23 24 24 24 24 25 26 27 28
10 12 12 13 14 16 17 18 19 18 19 18 19 19 19 18 19 21 21 21 21 21 21 22 23 23 24 24 24 25 26 27